Regional Weather Roundup
Issued by NWS

Home | Current Version | Previous Version | Text Only | Print | Product List | Glossary On
Versions: 1 2 3 4 5 6 7 8 9 10 11 12 13 14 15 16 17 18 19 20 21 22 23 24 25 26 27 28 29 30 31 32 33 34 35 36 37 38 39 40 41 42 43 44 45 46 47 48 49 50
285
ASUS43 KTOP 240808
RWRKS

WEATHER ROUNDUP FOR KANSAS
NATIONAL WEATHER SERVICE GOODLAND KS
300 AM CDT FRI MAR 24 2017

NOTE:  "FAIR" INDICATES FEW OR NO CLOUDS BELOW 12,000 FEET WITH NO
SIGNIFICANT WEATHER AND/OR OBSTRUCTIONS TO VISIBILITY.

KSZ001>006-013>018-027>032-041>047-240900-
NORTHWEST KANSAS

CITY           SKY/WX    TMP DP  RH WIND       PRES   REMARKS
GOODLAND       CLOUDY    54  50  86 N14       29.61R
HILL CITY      CLOUDY    57  55  93 NE14      29.64F
RUSSELL        CLOUDY    66  45  46 SE15      29.61F
$$

KSZ061>065-074>080-084>089-240900-
SOUTHWEST KANSAS

CITY           SKY/WX    TMP DP  RH WIND       PRES   REMARKS
DODGE CITY     MOCLDY    59  53  80 S20       29.59F
ELKHART          N/A     46  28  49 S21         N/A
GARDEN CITY    CLOUDY    57  51  80 SE18G28   29.55S
GREAT BEND     CLOUDY    66  45  46 SE14      29.61F
LIBERAL        PTCLDY    52  34  50 S21       29.58F
PRATT          MOCLDY    64  42  44 S18G26    29.64F
$$

KSZ066>073-081>083-090>101-240900-
SOUTHEAST KANSAS

CITY           SKY/WX    TMP DP  RH WIND       PRES   REMARKS
CHANUTE        MOCLDY    69  49  48 S17       29.83R
COFFEYVILLE    PTCLDY    71  47  42 S18G30    29.85R
HUTCHINSON     MOCLDY    69  46  43 S24G31    29.70F
MEDICINE LODGE   N/A     68  43  40 S16G25    29.65F
NEWTON         CLOUDY    68  46  45 S26G35    29.73F
PARSONS        CLOUDY    70  48  45 S15       29.85R
WICHITA INTL   CLOUDY    69  44  40 S22G29    29.73F
WICHITA JABRA  MOCLDY    69  45  41 S18G28    29.74F
WICHITA MCCONL MOCLDY    70  43  38 S23G32    29.73F
WINFIELD       CLOUDY    70  42  36 S28G35    29.76F
$$

KSZ007>012-019>026-033>040-048>060-102>105-240900-
NORTHEAST KANSAS

CITY           SKY/WX    TMP DP  RH WIND       PRES   REMARKS
CONCORDIA      CLOUDY    70  48  45 S20G32    29.69S
EMPORIA        PTCLDY    63  50  62 S8        29.78F
LAWRENCE       CLOUDY    69  51  52 S10       29.81R
MANHATTAN      CLOUDY    71  49  45 S14G25    29.72F
MARYSVILLE     CLOUDY    68  48  49 S10       29.72F
OLATHE IND     CLOUDY    67  50  54 S14G22    29.84R
OLATHE EXE     MOCLDY    65  50  58 S9        29.85R
SALINA         CLOUDY    71  48  43 S17G30    29.70F
TOPEKA BILLARD CLOUDY    68  52  56 S8        29.78F
TOPEKA FORBES  CLOUDY    68  51  54 S13       29.79F
$$




USA.gov is the U.S. government's official web portal to all federal, state and local government web resources and services.